Time,TemperatureF,DewpointF,PressureIn,WindDirection,WindDirectionDegrees,WindSpeedMPH,WindSpeedGustMPH,Humidity,HourlyPrecipIn,Conditions,Clouds,dailyrainin,SolarRadiationWatts/m^2,SoftwareType,DateUTC
2015-01-25 00:02:00,32.0,25.3,28.98,North,32767,0.0,0.0,76,0.00,,,0.00,0,Wunderground v.1.15,2015-01-25 05:02:00,
2015-01-25 00:07:00,31.7,25.3,28.98,North,32767,0.0,0.0,77,0.00,,,0.00,0,Wunderground v.1.15,2015-01-25 05:07:00,
2015-01-25 00:12:00,31.5,25.4,28.97,North,32767,0.0,0.0,78,0.00,,,0.00,0,Wunderground v.1.15,2015-01-25 05:12:00,
2015-01-25 00:18:00,31.2,25.7,28.98,North,32767,0.0,0.0,80,0.00,,,0.00,0,Wunderground v.1.15,2015-01-25 05:18:00,
2015-01-25 00:25:00,31.0,25.2,28.98,North,32767,0.0,0.0,79,0.00,,,0.00,0,Wunderground v.1.15,2015-01-25 05:25:00,
2015-01-25 00:31:00,31.1,26.0,28.98,North,32767,0.0,0.0,81,0.00,,,0.00,0,Wunderground v.1.15,2015-01-25 05:31:00,
2015-01-25 00:36:00,31.3,26.1,28.97,North,32767,0.0,0.0,81,0.00,,,0.00,0,Wunderground v.1.15,2015-01-25 05:36:00,
2015-01-25 00:41:00,31.3,26.1,28.98,North,32767,0.0,0.0,81,0.00,,,0.00,0,Wunderground v.1.15,2015-01-25 05:41:00,
2015-01-25 00:47:00,31.4,26.2,28.98,North,32767,0.0,0.0,81,0.00,,,0.00,0,Wunderground v.1.15,2015-01-25 05:47:00,
2015-01-25 00:52:00,31.2,25.7,28.98,North,32767,0.0,0.0,80,0.00,,,0.00,0,Wunderground v.1.15,2015-01-25 05:52:00,
2015-01-25 00:58:00,31.9,26.1,28.98,North,32767,0.0,0.0,79,0.00,,,0.00,0,Wunderground v.1.15,2015-01-25 05:58:00,
2015-01-25 01:04:00,33.4,26.6,28.99,North,32767,0.0,0.0,76,0.00,,,0.00,0,Wunderground v.1.15,2015-01-25 06:04:00,
2015-01-25 01:09:00,34.3,26.9,28.99,North,32767,0.0,0.0,74,0.00,,,0.00,0,Wunderground v.1.15,2015-01-25 06:09:00,
2015-01-25 01:14:00,34.9,26.8,28.99,North,32767,0.0,0.0,72,0.00,,,0.00,0,Wunderground v.1.15,2015-01-25 06:14:00,
2015-01-25 01:20:00,35.4,26.9,28.99,North,32767,0.0,0.0,71,0.00,,,0.00,0,Wunderground v.1.15,2015-01-25 06:20:00,
2015-01-25 01:26:00,35.8,27.0,28.99,North,32767,0.0,0.0,70,0.00,,,0.00,0,Wunderground v.1.15,2015-01-25 06:26:00,
2015-01-25 01:31:00,35.8,27.0,29.00,North,32767,0.0,0.0,70,0.00,,,0.00,0,Wunderground v.1.15,2015-01-25 06:31:00,
2015-01-25 01:36:00,35.4,27.6,29.00,North,32767,0.0,0.0,73,0.00,,,0.00,0,Wunderground v.1.15,2015-01-25 06:36:00,
2015-01-25 01:41:00,34.5,27.7,28.99,North,32767,0.0,0.0,76,0.00,,,0.00,0,Wunderground v.1.15,2015-01-25 06:41:00,
2015-01-25 01:47:00,33.5,26.7,29.01,North,32767,0.0,0.0,76,0.00,,,0.00,0,Wunderground v.1.15,2015-01-25 06:47:00,
2015-01-25 01:52:00,32.8,26.4,29.01,North,32767,0.0,0.0,77,0.00,,,0.00,0,Wunderground v.1.15,2015-01-25 06:52:00,
2015-01-25 01:58:00,32.7,26.3,29.01,North,32767,0.0,0.0,77,0.00,,,0.00,0,Wunderground v.1.15,2015-01-25 06:58:00,
2015-01-25 02:03:00,33.1,26.7,29.01,North,32767,0.0,0.0,77,0.00,,,0.00,0,Wunderground v.1.15,2015-01-25 07:03:00,
2015-01-25 02:08:00,33.6,26.8,29.00,North,32767,0.0,0.0,76,0.00,,,0.00,0,Wunderground v.1.15,2015-01-25 07:08:00,
2015-01-25 02:13:00,33.9,26.8,29.01,North,32767,0.0,0.0,75,0.00,,,0.00,0,Wunderground v.1.15,2015-01-25 07:13:00,
2015-01-25 02:19:00,33.6,27.5,29.01,North,32767,0.0,0.0,78,0.00,,,0.00,0,Wunderground v.1.15,2015-01-25 07:19:00,
2015-01-25 02:26:00,32.6,27.1,29.00,North,32767,0.0,0.0,80,0.00,,,0.00,0,Wunderground v.1.15,2015-01-25 07:26:00,
2015-01-25 02:32:00,32.0,26.8,29.01,North,32767,0.0,0.0,81,0.00,,,0.00,0,Wunderground v.1.15,2015-01-25 07:32:00,
2015-01-25 02:38:00,31.5,26.6,29.01,North,32767,0.0,0.0,82,0.00,,,0.00,0,Wunderground v.1.15,2015-01-25 07:38:00,
2015-01-25 02:44:00,31.6,26.7,29.01,North,32767,0.0,0.0,82,0.00,,,0.00,0,Wunderground v.1.15,2015-01-25 07:44:00,
2015-01-25 02:49:00,31.7,26.8,29.01,North,32767,0.0,0.0,82,0.00,,,0.00,0,Wunderground v.1.15,2015-01-25 07:49:00,
2015-01-25 02:55:00,31.6,27.0,29.01,North,32767,0.0,0.0,83,0.00,,,0.00,0,Wunderground v.1.15,2015-01-25 07:55:00,
2015-01-25 03:00:00,31.3,26.7,29.02,North,32767,0.0,0.0,83,0.00,,,0.00,0,Wunderground v.1.15,2015-01-25 08:00:00,
2015-01-25 03:07:00,31.0,26.7,29.03,North,32767,0.0,0.0,84,0.00,,,0.00,0,Wunderground v.1.15,2015-01-25 08:07:00,
2015-01-25 03:12:00,30.8,26.5,29.03,North,32767,0.0,0.0,84,0.00,,,0.00,0,Wunderground v.1.15,2015-01-25 08:12:00,
2015-01-25 03:17:00,30.8,26.5,29.02,North,32767,0.0,0.0,84,0.00,,,0.00,0,Wunderground v.1.15,2015-01-25 08:17:00,
2015-01-25 03:22:00,30.8,26.5,29.03,North,32767,0.0,0.0,84,0.00,,,0.00,0,Wunderground v.1.15,2015-01-25 08:22:00,
2015-01-25 03:27:00,31.0,27.0,29.03,North,32767,0.0,0.0,85,0.00,,,0.00,0,Wunderground v.1.15,2015-01-25 08:27:00,
2015-01-25 03:32:00,31.0,27.0,29.03,North,32767,0.0,0.0,85,0.00,,,0.00,0,Wunderground v.1.15,2015-01-25 08:32:00,
2015-01-25 03:38:00,31.1,26.8,29.02,North,32767,0.0,0.0,84,0.00,,,0.00,0,Wunderground v.1.15,2015-01-25 08:38:00,
2015-01-25 03:44:00,31.2,27.2,29.03,North,32767,0.0,0.0,85,0.00,,,0.00,0,Wunderground v.1.15,2015-01-25 08:44:00,
2015-01-25 03:49:00,31.2,27.2,29.03,North,32767,0.0,0.0,85,0.00,,,0.00,0,Wunderground v.1.15,2015-01-25 08:49:00,
2015-01-25 03:55:00,31.1,27.4,29.03,North,32767,0.0,0.0,86,0.00,,,0.00,0,Wunderground v.1.15,2015-01-25 08:55:00,
2015-01-25 04:00:00,31.0,27.3,29.02,North,32767,0.0,0.0,86,0.00,,,0.00,0,Wunderground v.1.15,2015-01-25 09:00:00,
2015-01-25 04:05:00,30.6,27.2,29.03,North,32767,0.0,0.0,87,0.00,,,0.00,0,Wunderground v.1.15,2015-01-25 09:05:00,
2015-01-25 04:11:00,30.5,27.1,29.03,North,32767,0.0,0.0,87,0.00,,,0.00,0,Wunderground v.1.15,2015-01-25 09:11:00,
2015-01-25 04:16:00,30.3,26.6,29.03,North,32767,0.0,0.0,86,0.00,,,0.00,0,Wunderground v.1.15,2015-01-25 09:16:00,
2015-01-25 04:22:00,30.2,26.8,29.02,North,32767,0.0,0.0,87,0.00,,,0.00,0,Wunderground v.1.15,2015-01-25 09:22:00,
2015-01-25 04:27:00,30.0,26.6,29.02,North,32767,0.0,0.0,87,0.00,,,0.00,0,Wunderground v.1.15,2015-01-25 09:27:00,
2015-01-25 04:32:00,29.9,26.5,29.02,North,32767,0.0,0.0,87,0.00,,,0.00,0,Wunderground v.1.15,2015-01-25 09:32:00,
2015-01-25 04:38:00,29.9,26.5,29.02,North,32767,0.0,0.0,87,0.00,,,0.00,0,Wunderground v.1.15,2015-01-25 09:38:00,
2015-01-25 04:44:00,30.1,27.0,29.03,North,32767,0.0,0.0,88,0.00,,,0.00,0,Wunderground v.1.15,2015-01-25 09:44:00,
2015-01-25 04:49:00,30.5,27.4,29.02,North,32767,0.0,0.0,88,0.00,,,0.00,0,Wunderground v.1.15,2015-01-25 09:49:00,
2015-01-25 04:55:00,30.3,27.2,29.03,North,32767,0.0,0.0,88,0.00,,,0.00,0,Wunderground v.1.15,2015-01-25 09:55:00,
2015-01-25 05:02:00,30.3,26.9,29.03,North,32767,0.0,0.0,87,0.00,,,0.00,0,Wunderground v.1.15,2015-01-25 10:02:00,
2015-01-25 05:09:00,30.1,26.7,29.02,North,32767,0.0,0.0,87,0.00,,,0.00,0,Wunderground v.1.15,2015-01-25 10:09:00,
2015-01-25 05:14:00,30.2,26.8,29.04,North,32767,0.0,0.0,87,0.00,,,0.00,0,Wunderground v.1.15,2015-01-25 10:14:00,
2015-01-25 05:21:00,30.1,26.7,29.04,North,32767,0.0,0.0,87,0.00,,,0.00,0,Wunderground v.1.15,2015-01-25 10:21:00,
2015-01-25 05:26:00,30.1,26.7,29.04,North,32767,0.0,0.0,87,0.00,,,0.00,0,Wunderground v.1.15,2015-01-25 10:26:00,
2015-01-25 05:31:00,30.2,26.8,29.02,North,32767,0.0,0.0,87,0.00,,,0.00,0,Wunderground v.1.15,2015-01-25 10:31:00,
2015-01-25 05:37:00,30.0,26.6,29.03,North,32767,0.0,0.0,87,0.00,,,0.00,0,Wunderground v.1.15,2015-01-25 10:37:00,
2015-01-25 05:44:00,30.0,26.6,29.04,North,32767,0.0,0.0,87,0.00,,,0.00,0,Wunderground v.1.15,2015-01-25 10:44:00,
2015-01-25 05:49:00,30.1,27.0,29.04,North,32767,0.0,0.0,88,0.00,,,0.00,0,Wunderground v.1.15,2015-01-25 10:49:00,
2015-01-25 05:54:00,30.1,27.0,29.04,North,32767,0.0,0.0,88,0.00,,,0.00,0,Wunderground v.1.15,2015-01-25 10:54:00,
2015-01-25 05:59:00,29.9,26.8,29.03,North,32767,0.0,0.0,88,0.00,,,0.00,0,Wunderground v.1.15,2015-01-25 10:59:00,
2015-01-25 06:04:00,29.7,26.6,29.04,North,32767,0.0,0.0,88,0.00,,,0.00,0,Wunderground v.1.15,2015-01-25 11:04:00,
2015-01-25 06:10:00,29.6,26.5,29.04,North,32767,0.0,0.0,88,0.00,,,0.00,0,Wunderground v.1.15,2015-01-25 11:10:00,
2015-01-25 06:16:00,29.5,26.7,29.04,North,32767,0.0,0.0,89,0.00,,,0.00,0,Wunderground v.1.15,2015-01-25 11:16:00,
2015-01-25 06:21:00,29.5,26.7,29.04,North,32767,0.0,0.0,89,0.00,,,0.00,0,Wunderground v.1.15,2015-01-25 11:21:00,
2015-01-25 06:26:00,29.6,26.8,29.05,North,32767,0.0,0.0,89,0.00,,,0.00,0,Wunderground v.1.15,2015-01-25 11:26:00,
2015-01-25 06:31:00,29.7,26.9,29.05,North,32767,0.0,0.0,89,0.00,,,0.00,0,Wunderground v.1.15,2015-01-25 11:31:00,
2015-01-25 06:36:00,29.9,27.1,29.05,North,32767,0.0,0.0,89,0.00,,,0.00,0,Wunderground v.1.15,2015-01-25 11:36:00,
2015-01-25 06:42:00,29.9,27.1,29.05,North,32767,0.0,0.0,89,0.00,,,0.00,0,Wunderground v.1.15,2015-01-25 11:42:00,
2015-01-25 06:47:00,30.2,27.3,29.04,North,32767,0.0,0.0,89,0.00,,,0.00,0,Wunderground v.1.15,2015-01-25 11:47:00,
2015-01-25 06:53:00,30.1,27.3,29.05,North,32767,0.0,0.0,89,0.00,,,0.00,0,Wunderground v.1.15,2015-01-25 11:53:00,
2015-01-25 06:59:00,30.2,27.3,29.05,North,32767,0.0,0.0,89,0.00,,,0.00,0,Wunderground v.1.15,2015-01-25 11:59:00,
2015-01-25 07:04:00,29.8,26.7,29.06,North,32767,0.0,0.0,88,0.00,,,0.00,0,Wunderground v.1.15,2015-01-25 12:04:00,
2015-01-25 07:09:00,29.6,26.5,29.05,North,32767,0.0,0.0,88,0.00,,,0.00,0,Wunderground v.1.15,2015-01-25 12:09:00,
2015-01-25 07:14:00,29.5,26.4,29.06,North,32767,0.0,0.0,88,0.00,,,0.00,0,Wunderground v.1.15,2015-01-25 12:14:00,
2015-01-25 07:19:00,29.5,26.7,29.06,North,32767,0.0,0.0,89,0.00,,,0.00,0,Wunderground v.1.15,2015-01-25 12:19:00,
2015-01-25 07:25:00,29.9,27.1,29.06,North,32767,0.0,0.0,89,0.00,,,0.00,5,Wunderground v.1.15,2015-01-25 12:25:00,
2015-01-25 07:31:00,29.9,27.1,29.06,North,32767,0.0,0.0,89,0.00,,,0.00,7,Wunderground v.1.15,2015-01-25 12:31:00,
2015-01-25 07:36:00,29.8,26.7,29.07,North,32767,0.0,0.0,88,0.00,,,0.00,11,Wunderground v.1.15,2015-01-25 12:36:00,
2015-01-25 07:42:00,29.9,27.1,29.07,North,32767,0.0,0.0,89,0.00,,,0.00,12,Wunderground v.1.15,2015-01-25 12:42:00,
2015-01-25 07:47:00,30.0,27.2,29.07,North,32767,0.0,0.0,89,0.00,,,0.00,14,Wunderground v.1.15,2015-01-25 12:47:00,
2015-01-25 07:52:00,29.9,26.8,29.06,North,32767,0.0,0.0,88,0.00,,,0.00,18,Wunderground v.1.15,2015-01-25 12:52:00,
2015-01-25 07:57:00,29.8,26.7,29.07,North,32767,0.0,0.0,88,0.00,,,0.00,19,Wunderground v.1.15,2015-01-25 12:57:00,
2015-01-25 08:04:00,29.8,26.7,29.08,North,32767,0.0,0.0,88,0.00,,,0.00,90,Wunderground v.1.15,2015-01-25 13:04:00,
2015-01-25 08:09:00,29.9,26.8,29.07,North,32767,0.0,0.0,88,0.00,,,0.00,155,Wunderground v.1.15,2015-01-25 13:09:00,
2015-01-25 08:14:00,30.3,27.2,29.06,North,32767,0.0,0.0,88,0.00,,,0.00,176,Wunderground v.1.15,2015-01-25 13:14:00,
2015-01-25 08:19:00,30.9,27.8,29.07,North,32767,0.0,0.0,88,0.00,,,0.00,178,Wunderground v.1.15,2015-01-25 13:19:00,
2015-01-25 08:26:00,31.7,28.3,29.07,North,32767,0.0,0.0,87,0.00,,,0.00,204,Wunderground v.1.15,2015-01-25 13:26:00,
2015-01-25 08:31:00,32.3,28.6,29.07,North,32767,0.0,0.0,86,0.00,,,0.00,221,Wunderground v.1.15,2015-01-25 13:31:00,
2015-01-25 08:36:00,32.8,28.8,29.07,North,32767,0.0,0.0,85,0.00,,,0.00,243,Wunderground v.1.15,2015-01-25 13:36:00,
2015-01-25 08:41:00,33.4,29.1,29.05,North,32767,0.0,0.0,84,0.00,,,0.00,269,Wunderground v.1.15,2015-01-25 13:41:00,
2015-01-25 08:47:00,34.1,29.5,29.06,North,32767,0.0,0.0,83,0.00,,,0.00,292,Wunderground v.1.15,2015-01-25 13:47:00,
2015-01-25 08:54:00,34.7,30.1,29.06,North,32767,0.0,0.0,83,0.00,,,0.00,309,Wunderground v.1.15,2015-01-25 13:54:00,
2015-01-25 08:59:00,34.8,29.9,29.07,North,32767,0.0,0.0,82,0.00,,,0.00,330,Wunderground v.1.15,2015-01-25 13:59:00,
2015-01-25 09:05:00,35.4,30.1,29.07,North,32767,0.0,0.0,81,0.00,,,0.00,350,Wunderground v.1.15,2015-01-25 14:05:00,
2015-01-25 09:11:00,36.6,31.0,29.06,North,32767,0.0,0.0,80,0.00,,,0.00,373,Wunderground v.1.15,2015-01-25 14:11:00,
2015-01-25 09:16:00,37.5,31.3,29.07,North,32767,0.0,0.0,78,0.00,,,0.00,388,Wunderground v.1.15,2015-01-25 14:16:00,
2015-01-25 09:22:00,38.6,31.7,29.07,North,32767,0.0,0.0,76,0.00,,,0.00,404,Wunderground v.1.15,2015-01-25 14:22:00,
2015-01-25 09:27:00,39.6,32.7,29.06,North,32767,0.0,0.0,76,0.00,,,0.00,420,Wunderground v.1.15,2015-01-25 14:27:00,
2015-01-25 09:33:00,40.4,32.8,29.07,North,32767,0.0,0.0,74,0.00,,,0.00,432,Wunderground v.1.15,2015-01-25 14:33:00,
2015-01-25 09:38:00,41.3,33.3,29.07,North,32767,0.0,0.0,73,0.00,,,0.00,452,Wunderground v.1.15,2015-01-25 14:38:00,
2015-01-25 09:43:00,42.0,33.3,29.07,North,32767,0.0,0.0,71,0.00,,,0.00,466,Wunderground v.1.15,2015-01-25 14:43:00,
2015-01-25 09:48:00,42.5,33.4,29.06,North,32767,0.0,0.0,70,0.00,,,0.00,483,Wunderground v.1.15,2015-01-25 14:48:00,
2015-01-25 09:55:00,43.2,33.7,29.07,North,32767,0.0,0.0,69,0.00,,,0.00,497,Wunderground v.1.15,2015-01-25 14:55:00,
2015-01-25 10:00:00,43.9,33.6,29.07,North,32767,0.0,0.0,67,0.00,,,0.00,510,Wunderground v.1.15,2015-01-25 15:00:00,
2015-01-25 10:06:00,44.5,33.8,29.07,North,32767,0.0,0.0,66,0.00,,,0.00,526,Wunderground v.1.15,2015-01-25 15:06:00,
2015-01-25 10:11:00,44.9,34.2,29.07,North,32767,0.0,0.0,66,0.00,,,0.00,538,Wunderground v.1.15,2015-01-25 15:11:00,
2015-01-25 10:16:00,45.0,33.5,29.07,North,32767,0.0,0.0,64,0.00,,,0.00,548,Wunderground v.1.15,2015-01-25 15:16:00,
2015-01-25 10:22:00,44.9,32.7,29.08,North,32767,0.0,0.0,62,0.00,,,0.00,563,Wunderground v.1.15,2015-01-25 15:22:00,
2015-01-25 10:28:00,45.1,32.8,29.08,North,32767,0.0,0.0,62,0.00,,,0.00,570,Wunderground v.1.15,2015-01-25 15:28:00,
2015-01-25 10:33:00,45.4,33.1,29.08,North,32767,0.0,0.0,62,0.00,,,0.00,582,Wunderground v.1.15,2015-01-25 15:33:00,
2015-01-25 10:38:00,45.7,33.0,29.06,North,32767,0.0,0.0,61,0.00,,,0.00,594,Wunderground v.1.15,2015-01-25 15:38:00,
2015-01-25 10:43:00,46.3,33.6,29.07,North,32767,0.0,0.0,61,0.00,,,0.00,605,Wunderground v.1.15,2015-01-25 15:43:00,
2015-01-25 10:49:00,46.9,33.7,29.07,North,32767,0.0,0.0,60,0.00,,,0.00,612,Wunderground v.1.15,2015-01-25 15:49:00,
2015-01-25 10:54:00,47.3,34.1,29.07,North,32767,0.0,0.0,60,0.00,,,0.00,621,Wunderground v.1.15,2015-01-25 15:54:00,
2015-01-25 11:00:00,48.1,34.9,29.05,North,32767,0.0,0.0,60,0.00,,,0.00,629,Wunderground v.1.15,2015-01-25 16:00:00,
2015-01-25 11:05:00,48.5,33.9,29.06,North,32767,0.0,0.0,57,0.00,,,0.00,638,Wunderground v.1.15,2015-01-25 16:05:00,
2015-01-25 11:11:00,48.6,34.5,29.06,North,32767,0.0,0.0,58,0.00,,,0.00,645,Wunderground v.1.15,2015-01-25 16:11:00,
2015-01-25 11:16:00,48.7,33.7,29.06,North,32767,0.0,0.0,56,0.00,,,0.00,650,Wunderground v.1.15,2015-01-25 16:16:00,
2015-01-25 11:21:00,48.8,33.3,29.05,North,32767,0.0,0.0,55,0.00,,,0.00,657,Wunderground v.1.15,2015-01-25 16:21:00,
2015-01-25 11:26:00,48.9,33.4,29.07,North,32767,0.0,0.0,55,0.00,,,0.00,659,Wunderground v.1.15,2015-01-25 16:26:00,
2015-01-25 11:32:00,49.3,34.3,29.07,North,32767,0.0,0.0,56,0.00,,,0.00,668,Wunderground v.1.15,2015-01-25 16:32:00,
2015-01-25 11:37:00,49.7,33.7,29.07,North,32767,0.0,0.0,54,0.00,,,0.00,670,Wunderground v.1.15,2015-01-25 16:37:00,
2015-01-25 11:43:00,49.8,34.3,29.06,North,32767,0.0,0.0,55,0.00,,,0.00,673,Wunderground v.1.15,2015-01-25 16:43:00,
2015-01-25 11:48:00,50.3,33.8,29.07,North,32767,0.0,0.0,53,0.00,,,0.00,677,Wunderground v.1.15,2015-01-25 16:48:00,
2015-01-25 11:53:00,50.4,33.9,29.06,North,32767,0.0,0.0,53,0.00,,,0.00,679,Wunderground v.1.15,2015-01-25 16:53:00,
2015-01-25 11:58:00,50.8,35.2,29.06,North,32767,0.0,0.0,55,0.00,,,0.00,680,Wunderground v.1.15,2015-01-25 16:58:00,
2015-01-25 12:04:00,50.7,33.7,29.05,North,32767,0.0,0.0,52,0.00,,,0.00,682,Wunderground v.1.15,2015-01-25 17:04:00,
2015-01-25 12:09:00,50.8,34.3,29.04,North,32767,0.0,0.0,53,0.00,,,0.00,682,Wunderground v.1.15,2015-01-25 17:09:00,
2015-01-25 12:14:00,51.2,34.6,29.05,North,32767,0.0,0.0,53,0.00,,,0.00,684,Wunderground v.1.15,2015-01-25 17:14:00,
2015-01-25 12:19:00,51.5,34.0,29.04,North,32767,0.0,0.0,51,0.00,,,0.00,682,Wunderground v.1.15,2015-01-25 17:19:00,
2015-01-25 12:24:00,51.8,34.2,29.03,North,32767,0.0,0.0,51,0.00,,,0.00,682,Wunderground v.1.15,2015-01-25 17:24:00,
2015-01-25 12:30:00,52.1,34.5,29.02,North,32767,0.0,0.0,51,0.00,,,0.00,682,Wunderground v.1.15,2015-01-25 17:30:00,
2015-01-25 12:35:00,52.7,34.6,29.02,North,32767,0.0,0.0,50,0.00,,,0.00,680,Wunderground v.1.15,2015-01-25 17:35:00,
2015-01-25 12:41:00,53.0,34.3,29.02,North,32767,0.0,0.0,49,0.00,,,0.00,679,Wunderground v.1.15,2015-01-25 17:41:00,
2015-01-25 12:47:00,53.2,35.0,29.02,North,32767,0.0,0.0,50,0.00,,,0.00,675,Wunderground v.1.15,2015-01-25 17:47:00,
2015-01-25 12:53:00,53.3,34.6,29.01,North,32767,0.0,0.0,49,0.00,,,0.00,670,Wunderground v.1.15,2015-01-25 17:53:00,
2015-01-25 12:58:00,53.1,34.4,29.00,North,32767,0.0,0.0,49,0.00,,,0.00,664,Wunderground v.1.15,2015-01-25 17:58:00,
2015-01-25 13:03:00,53.6,34.9,28.99,North,32767,0.0,0.0,49,0.00,,,0.00,661,Wunderground v.1.15,2015-01-25 18:03:00,
2015-01-25 13:08:00,53.7,35.0,29.00,North,32767,0.0,0.0,49,0.00,,,0.00,661,Wunderground v.1.15,2015-01-25 18:08:00,
2015-01-25 13:14:00,54.3,33.9,29.00,North,32767,0.0,0.0,46,0.00,,,0.00,661,Wunderground v.1.15,2015-01-25 18:14:00,
2015-01-25 13:19:00,54.5,33.6,28.99,North,32767,0.0,0.0,45,0.00,,,0.00,664,Wunderground v.1.15,2015-01-25 18:19:00,
2015-01-25 13:25:00,54.6,33.7,28.98,North,32767,0.0,0.0,45,0.00,,,0.00,617,Wunderground v.1.15,2015-01-25 18:25:00,
2015-01-25 13:31:00,54.6,34.2,28.98,North,32767,0.0,0.0,46,0.00,,,0.00,707,Wunderground v.1.15,2015-01-25 18:31:00,
2015-01-25 13:36:00,55.1,34.1,28.98,North,32767,0.0,0.0,45,0.00,,,0.00,378,Wunderground v.1.15,2015-01-25 18:36:00,
2015-01-25 13:41:00,55.0,34.0,28.98,North,32767,0.0,0.0,45,0.00,,,0.00,536,Wunderground v.1.15,2015-01-25 18:41:00,
2015-01-25 13:46:00,55.0,34.6,28.97,North,32767,0.0,0.0,46,0.00,,,0.00,677,Wunderground v.1.15,2015-01-25 18:46:00,
2015-01-25 13:53:00,55.4,33.8,28.97,North,32767,0.0,0.0,44,0.00,,,0.00,606,Wunderground v.1.15,2015-01-25 18:53:00,
2015-01-25 13:58:00,55.7,34.1,28.97,North,32767,0.0,0.0,44,0.00,,,0.00,589,Wunderground v.1.15,2015-01-25 18:58:00,
2015-01-25 14:04:00,55.9,33.7,28.95,North,32767,0.0,0.0,43,0.00,,,0.00,564,Wunderground v.1.15,2015-01-25 19:04:00,
2015-01-25 14:09:00,55.9,33.7,28.96,North,32767,0.0,0.0,43,0.00,,,0.00,585,Wunderground v.1.15,2015-01-25 19:09:00,
2015-01-25 14:15:00,55.9,33.7,28.95,North,32767,0.0,0.0,43,0.00,,,0.00,555,Wunderground v.1.15,2015-01-25 19:15:00,
2015-01-25 14:20:00,56.1,33.3,28.95,North,32767,0.0,0.0,42,0.00,,,0.00,555,Wunderground v.1.15,2015-01-25 19:20:00,
2015-01-25 14:27:00,56.0,33.2,28.93,North,32767,0.0,0.0,42,0.00,,,0.00,381,Wunderground v.1.15,2015-01-25 19:27:00,
2015-01-25 14:32:00,55.7,33.5,28.94,North,32767,0.0,0.0,43,0.00,,,0.00,587,Wunderground v.1.15,2015-01-25 19:32:00,
2015-01-25 14:37:00,55.9,34.3,28.94,North,32767,0.0,0.0,44,0.00,,,0.00,517,Wunderground v.1.15,2015-01-25 19:37:00,
2015-01-25 14:43:00,56.1,33.3,28.95,North,32767,0.0,0.0,42,0.00,,,0.00,492,Wunderground v.1.15,2015-01-25 19:43:00,
2015-01-25 14:50:00,56.5,33.7,28.94,North,32767,0.0,0.0,42,0.00,,,0.00,475,Wunderground v.1.15,2015-01-25 19:50:00,
2015-01-25 14:57:00,56.4,33.6,28.94,North,32767,0.0,0.0,42,0.00,,,0.00,455,Wunderground v.1.15,2015-01-25 19:57:00,
2015-01-25 15:03:00,56.4,33.6,28.94,North,32767,0.0,0.0,42,0.00,,,0.00,436,Wunderground v.1.15,2015-01-25 20:03:00,
2015-01-25 15:08:00,56.6,34.3,28.94,North,32767,0.0,0.0,43,0.00,,,0.00,424,Wunderground v.1.15,2015-01-25 20:08:00,
2015-01-25 15:13:00,56.8,34.5,28.92,North,32767,0.0,0.0,43,0.00,,,0.00,408,Wunderground v.1.15,2015-01-25 20:13:00,
2015-01-25 15:19:00,56.8,33.9,28.92,North,32767,0.0,0.0,42,0.00,,,0.00,390,Wunderground v.1.15,2015-01-25 20:19:00,
2015-01-25 15:25:00,56.5,34.3,28.92,North,32767,0.0,0.0,43,0.00,,,0.00,376,Wunderground v.1.15,2015-01-25 20:25:00,
2015-01-25 15:30:00,56.7,35.0,28.92,North,32767,0.0,0.0,44,0.00,,,0.00,359,Wunderground v.1.15,2015-01-25 20:30:00,
2015-01-25 15:35:00,56.9,34.0,28.92,North,32767,0.0,0.0,42,0.00,,,0.00,343,Wunderground v.1.15,2015-01-25 20:35:00,
2015-01-25 15:41:00,56.8,34.5,28.91,North,32767,0.0,0.0,43,0.00,,,0.00,325,Wunderground v.1.15,2015-01-25 20:41:00,
2015-01-25 15:46:00,56.9,33.4,28.92,North,32767,0.0,0.0,41,0.00,,,0.00,309,Wunderground v.1.15,2015-01-25 20:46:00,
2015-01-25 15:52:00,56.8,33.3,28.92,North,32767,0.0,0.0,41,0.00,,,0.00,290,Wunderground v.1.15,2015-01-25 20:52:00,
2015-01-25 15:57:00,56.8,33.9,28.92,North,32767,0.0,0.0,42,0.00,,,0.00,272,Wunderground v.1.15,2015-01-25 20:57:00,
2015-01-25 16:02:00,56.6,34.3,28.91,North,32767,0.0,0.0,43,0.00,,,0.00,255,Wunderground v.1.15,2015-01-25 21:02:00,
2015-01-25 16:08:00,56.4,33.0,28.92,North,32767,0.0,0.0,41,0.00,,,0.00,244,Wunderground v.1.15,2015-01-25 21:08:00,